Location: Rounton
(54.4000°N, 1.3500°W)
Time: 08:57:12
(UTC+01:00)

deb Agena D - Pass Details

Date: 15 June 2023
Orbit: 996 x 1023 km, 100.1° (Epoch: 29 September)

Event Time Altitude Azimuth Distance (km) Brightness Sun altitude
Rises 22:53:58 0° 104° (ESE) 3,723 ? -7.3°
Reaches altitude 10° 22:57:05 10° 88° (E) 2,774 ? -7.5°
Maximum altitude 23:01:25 20° 44° (NE) 2,117 ? -7.8°
Drops below altitude 10° 23:05:46 10° 359° (N) 2,778 ? -8.1°
Sets 23:08:52 0° 344° (NNW) 3,731 ? -8.3°
